[[{"header":{"parameterUnit":"m.s-1","parameterCategory":1,"la1":30.2991,"la2":30.254,"lo1":-89.0895,"lo2":-89.0444,"dy":0.0017,"dx":0.0017,"nx":28,"ny":28,"refTime":"2024-05-20T03:00:00:Z","depth":0,"parameterNumber":2,"parameterNumberName":"U-component_of_WINDS"},"data":[0,0,0,0,0,0,0,0,0,0,0,0,0,0,0,0,0,0,0,0,0,0,0,0,0,0,0,0,0,0,0,0,0,0,0,0,0,0,0,0,0,0,0,0,0,0,0,0,0,0,0,0,0,0,0,0,0,0,-1.319,-1.319,0,-1.3143,-1.3142,-1.3141,-1.3158,-1.3159,-1.316,-1.3161,-1.3109,-1.3107,-1.3105,0,0,0,0,0,0,0,0,0,0,0,0,0,-1.3295,-1.3293,-1.319,-1.319,-1.3189,-1.3143,-1.3142,-1.3141,-1.3158,-1.3159,-1.3161,-1.3162,-1.311,-1.3107,-1.3105,0,0,0,0,0,0,0,0,0,0,0,0,0,-1.3248,-1.3292,-1.319,-1.3192,-1.3192,-1.3143,-1.3142,-1.3141,-1.3158,-1.3159,-1.3161,-1.3162,-1.3111,-1.3108,-1.3104,-1.305,0,0,-1.3093,-1.3092,0,0,0,0,0,0,0,0,-1.3251,-1.3244,-1.3192,-1.3192,-1.3191,-1.3158,-1.316,-1.311,-1.3157,-1.317,-1.3161,-1.3163,-1.3124,-1.312,-1.3107,-1.3048,-1.3045,-1.3093,-1.3091,-1.3089,-1.3088,0,0,0,0,0,0,0,-1.3254,-1.3247,-1.3171,-1.3191,-1.3191,-1.3195,-1.319,-1.3151,-1.3139,-1.3169,-1.3171,-1.3165,-1.3124,-1.311,-1.3106,-1.3045,-1.3093,-1.309,-1.3088,-1.3086,-1.2941,-1.2939,0,0,0,0,0,0,-1.3258,-1.3249,-1.3173,-1.317,-1.3226,-1.3191,-1.3186,-1.3167,-1.3139,-1.3137,-1.3164,-1.3166,-1.3116,-1.311,-1.3104,-1.304,-1.3089,-1.3086,-1.3084,-1.2942,-1.294,-1.2938,0,0,0,0,0,0,-1.326,-1.3251,-1.3175,-1.321,-1.32,-1.3188,-1.3166,-1.3165,-1.3152,-1.3135,-1.3133,-1.3152,-1.3117,-1.3109,-1.3064,-1.3038,-1.3084,-1.3081,-1.2944,-1.2942,-1.2939,-1.2911,0,0,0,0,0,0,-1.3263,-1.3252,-1.3231,-1.3209,-1.3199,-1.3136,-1.3165,-1.3163,-1.3146,-1.3148,-1.3123,-1.3121,-1.3117,-1.3069,-1.3061,-1.3034,-1.3078,-1.2946,-1.2943,-1.294,-1.2914,-1.2908,-1.2902,0,0,0,0,0,-1.3267,-1.3224,-1.323,-1.322,-1.3173,-1.3134,-1.3128,-1.3126,-1.3144,-1.3123,-1.3112,-1.3121,-1.3043,-1.3065,-1.3055,-1.3027,-1.2948,-1.2944,-1.294,-1.2917,-1.2909,-1.2902,0,0,0,0,0,0,-1.3241,-1.3221,-1.3227,-1.3176,-1.3157,-1.3137,-1.3111,-1.3118,-1.3092,-1.3095,-1.3093,-1.3087,-1.3041,-1.303,-1.3054,-1.2974,-1.2998,-1.2992,-1.2983,-1.2976,-1.297,-1.2974,-1.3075,0,0,0,0,0,-1.323,-1.3201,-1.3185,-1.3141,-1.3132,-1.3123,-1.3106,-1.3106,-1.3086,-1.3077,-1.3064,-1.3043,-1.3014,-1.2994,-1.2966,-1.2913,-1.2908,-1.2889,-1.2883,-1.2878,-1.2873,-1.2845,-1.2837,-1.2925,-1.2925,-1.2926,0,0,-1.3206,-1.3191,-1.3173,-1.3136,-1.3121,-1.3091,-1.3116,-1.3082,-1.306,-1.3072,-1.3029,-1.3018,-1.2995,-1.2946,-1.2924,-1.2935,-1.2848,-1.2873,-1.287,-1.2867,-1.284,-1.2832,-1.2824,-1.2923,-1.2923,-1.2924,0,0,-1.3147,-1.3133,-1.3096,-1.3081,-1.3059,-1.3054,-1.3045,-1.3024,-1.3018,-1.2975,-1.2984,-1.2957,-1.2907,-1.289,-1.2875,-1.2812,-1.282,-1.2803,-1.2772,-1.2745,-1.2738,-1.2732,-1.271,-1.2702,-1.2798,-1.2798,-1.2798,0,-1.3119,-1.3075,-1.3075,-1.3042,-1.3026,-1.3037,-1.3,-1.2985,-1.2955,-1.2943,-1.2957,-1.2895,-1.288,-1.2828,-1.2813,-1.28,-1.279,-1.2806,-1.2739,-1.2733,-1.2727,-1.2706,-1.2698,-1.2796,-1.2796,-1.2797,-1.2797,0,-1.3043,-1.3012,-1.2985,-1.2957,-1.2937,-1.2902,-1.2897,-1.2878,-1.288,-1.2874,-1.2831,-1.2814,-1.2783,-1.2771,-1.2772,-1.2719,-1.2727,-1.274,-1.2763,-1.2717,-1.2697,-1.2689,-1.2794,-1.2794,-1.2795,-1.2795,0,0,-1.2964,-1.2939,-1.2929,-1.2917,-1.2894,-1.287,-1.2836,-1.2808,-1.2791,-1.277,-1.2741,-1.27,-1.2712,-1.2695,-1.2695,-1.2671,-1.2623,-1.2687,-1.2686,-1.2676,-1.2565,-1.2555,-1.2546,-1.2629,-1.2627,-1.2626,-1.2567,0,-1.2904,-1.2845,-1.2845,-1.279,-1.2762,-1.2774,-1.2744,-1.2727,-1.272,-1.2695,-1.2688,-1.2658,-1.2676,-1.2666,-1.2643,-1.2634,-1.2601,-1.2638,-1.2602,-1.26,-1.2607,-1.2536,-1.2525,-1.247,-1.2559,-1.2558,-1.2557,0,-1.2825,-1.2803,-1.2745,-1.2729,-1.2717,-1.269,-1.2665,-1.2641,-1.2622,-1.2619,-1.2602,-1.2606,-1.2571,-1.2597,-1.2549,-1.2574,-1.256,-1.2553,-1.2551,-1.2547,-1.2575,-1.253,-1.2452,-1.2444,-1.2545,-1.2546,-1.2546,0,-1.2774,-1.273,-1.2691,-1.268,-1.2659,-1.264,-1.2631,-1.2614,-1.2597,-1.2575,-1.2564,-1.2538,-1.2524,-1.2503,-1.25,-1.2519,-1.2453,-1.2478,-1.2449,-1.2449,-1.2434,-1.2435,-1.2353,-1.2424,-1.2425,-1.2425,-1.2425,0,-1.2707,-1.2671,-1.2668,-1.2644,-1.2605,-1.2606,-1.2567,-1.2559,-1.2544,-1.2518,-1.2526,-1.2502,-1.25,-1.2474,-1.2472,-1.2433,-1.2426,-1.2423,-1.2423,-1.2422,-1.2423,-1.2412,-1.2416,-1.2423,-1.2423,-1.2423,-1.2424,0,-1.2643,-1.264,-1.2598,-1.2582,-1.2577,-1.2549,-1.2536,-1.2513,-1.2508,-1.2475,-1.2467,-1.2459,-1.243,-1.2426,-1.2391,-1.239,-1.2344,-1.2347,-1.235,-1.2351,-1.2322,-1.2325,-1.2231,-1.2218,-1.2298,-1.2297,-1.2297,0,-1.26,-1.2573,-1.2556,-1.254,-1.2529,-1.2503,-1.2487,-1.2487,-1.247,-1.2448,-1.2427,-1.2399,-1.2377,-1.233,-1.2321,-1.2295,-1.2298,-1.2267,-1.2294,-1.2295,-1.2298,-1.2299,-1.2297,-1.2261,-1.226,-1.2259,-1.2259,0,-1.2524,-1.2524,-1.2501,-1.2478,-1.2458,-1.244,-1.2422,-1.2408,-1.2406,-1.2387,-1.2358,-1.2341,-1.2307,-1.2279,-1.2254,-1.2243,-1.2251,-1.2251,-1.2243,-1.2242,-1.2245,-1.2243,-1.2336,-1.2253,-1.2253,-1.2254,-1.2254,-1.2254,-1.247,-1.2447,-1.2432,-1.2406,-1.2393,-1.2377,-1.2355,-1.2348,-1.2324,-1.2297,-1.2299,-1.2267,-1.2251,-1.2218,-1.2206,-1.2181,-1.2191,-1.2179,-1.2176,-1.2173,-1.2171,-1.2249,-1.2176,-1.2176,-1.2176,-1.2177,-1.2177,0,-1.2395,-1.2386,-1.2362,-1.2338,-1.2318,-1.2329,-1.231,-1.2292,-1.2265,-1.2249,-1.2227,-1.2195,-1.2169,-1.2158,-1.2132,-1.2115,-1.2117,-1.2108,-1.2109,-1.2107,-1.2163,-1.2173,-1.2106,-1.2106,-1.2106,-1.2106,-1.2106,-1.2106,-1.2353,-1.2316,-1.2315,-1.2271,-1.2262,-1.2232,-1.2221,-1.2206,-1.2194,-1.2158,-1.2136,-1.213,-1.2117,-1.209,-1.2067,-1.2064,-1.2055,-1.2043,-1.2042,-1.2095,-1.2102,-1.2109,-1.2118,-1.2041,-1.2041,-1.1988,-1.1988,-1.1987]},{"header":{"parameterUnit":"m.s-1","parameterCategory":1,"la1":30.2991,"la2":30.254,"lo1":-89.0895,"lo2":-89.0444,"dy":0.0017,"dx":0.0017,"nx":28,"ny":28,"refTime":"2024-05-20T03:00:00:Z","depth":0,"parameterNumber":3,"parameterNumberName":"V-component_of_WINDS"},"data":[0,0,0,0,0,0,0,0,0,0,0,0,0,0,0,0,0,0,0,0,0,0,0,0,0,0,0,0,0,0,0,0,0,0,0,0,0,0,0,0,0,0,0,0,0,0,0,0,0,0,0,0,0,0,0,0,0,0,2.2042,2.2042,0,2.1997,2.1997,2.1996,2.1892,2.189,2.1888,2.1886,2.1843,2.1843,2.1844,0,0,0,0,0,0,0,0,0,0,0,0,0,2.2042,2.2042,2.2042,2.2042,2.2041,2.1997,2.1997,2.1996,2.1893,2.189,2.1887,2.1885,2.1842,2.1843,2.1844,0,0,0,0,0,0,0,0,0,0,0,0,0,2.2024,2.2042,2.2042,2.1984,2.1979,2.1998,2.1997,2.1996,2.1893,2.189,2.1887,2.1884,2.1842,2.1843,2.1845,2.1917,0,0,2.1848,2.1849,0,0,0,0,0,0,0,0,2.2025,2.2024,2.1993,2.1988,2.1982,2.1947,2.198,2.197,2.1894,2.1926,2.1886,2.1882,2.188,2.1878,2.1877,2.1915,2.1913,2.1849,2.1849,2.185,2.185,0,0,0,0,0,0,0,2.2026,2.2026,2.2025,2.1993,2.1986,2.1961,2.1955,2.1978,2.1922,2.1923,2.1915,2.1911,2.1876,2.1876,2.1875,2.1913,2.1849,2.185,2.185,2.1851,2.2008,2.2011,0,0,0,0,0,0,2.2036,2.2027,2.2026,2.2023,2.1996,2.1964,2.1957,2.1962,2.1921,2.1912,2.1914,2.1906,2.1875,2.1874,2.1873,2.1954,2.185,2.1851,2.1852,2.2004,2.2008,2.2012,0,0,0,0,0,0,2.2036,2.2037,2.2028,2.2023,2.202,2.1967,2.1973,2.1962,2.1961,2.1914,2.1904,2.1923,2.1873,2.1871,2.1907,2.1951,2.1852,2.1853,2.2,2.2006,2.201,2.2117,0,0,0,0,0,0,2.2037,2.2037,2.2064,2.2024,2.2021,2.2061,2.1976,2.1964,2.1964,2.1953,2.1921,2.1912,2.187,2.1905,2.1908,2.1951,2.1854,2.1996,2.2003,2.2009,2.2109,2.2125,2.2139,0,0,0,0,0,2.2037,2.2096,2.2065,2.2066,2.2052,2.2064,2.2062,2.2012,2.1968,2.1994,2.1964,2.1913,2.1947,2.191,2.1912,2.1956,2.1993,2.2001,2.2008,2.2103,2.2122,2.2138,0,0,0,0,0,0,2.2143,2.209,2.2055,2.2104,2.2089,2.2046,2.2078,2.2034,2.2032,2.2023,2.1961,2.1955,2.1998,2.1981,2.1941,2.2024,2.1961,2.197,2.2033,2.2051,2.2065,2.2067,2.1855,0,0,0,0,0,2.2172,2.2185,2.2139,2.2186,2.218,2.2131,2.2134,2.2097,2.2079,2.2073,2.2045,2.2031,2.2038,2.2044,2.2048,2.2108,2.2098,2.2139,2.2154,2.2166,2.2173,2.2202,2.2219,2.2037,2.2037,2.2037,0,0,2.2232,2.2205,2.2217,2.2207,2.2191,2.2206,2.2126,2.2146,2.2157,2.2076,2.2106,2.2087,2.2067,2.2114,2.2134,2.2101,2.2222,2.2176,2.2186,2.2186,2.2212,2.2229,2.2244,2.2042,2.2041,2.204,0,0,2.2348,2.233,2.2366,2.2352,2.2328,2.2295,2.2305,2.2269,2.2252,2.2282,2.2221,2.2234,2.2248,2.2236,2.2232,2.2345,2.2298,2.2349,2.2424,2.2453,2.2468,2.248,2.2518,2.2533,2.2357,2.2357,2.2357,0,2.2425,2.2444,2.239,2.2413,2.241,2.2338,2.2375,2.2364,2.2345,2.2344,2.2309,2.2324,2.2306,2.2348,2.2376,2.2376,2.2384,2.235,2.247,2.2482,2.2492,2.2528,2.2543,2.2363,2.2362,2.2362,2.2361,0,2.2539,2.2554,2.2587,2.2568,2.2569,2.2599,2.255,2.2559,2.2522,2.2493,2.2525,2.2501,2.2498,2.2506,2.2471,2.2544,2.2524,2.2481,2.2416,2.2517,2.2549,2.2563,2.2372,2.237,2.2368,2.2366,0,0,2.2718,2.2669,2.2682,2.2672,2.2642,2.2653,2.2681,2.2677,2.2684,2.2675,2.2695,2.2709,2.2668,2.2664,2.2627,2.2653,2.2742,2.2605,2.2604,2.2629,2.2819,2.285,2.2867,2.2712,2.2715,2.2717,2.282,0,2.2824,2.2866,2.2819,2.2871,2.2883,2.2816,2.284,2.2825,2.28,2.2807,2.278,2.2789,2.2736,2.2732,2.2755,2.2726,2.2779,2.2719,2.273,2.2731,2.2733,2.2884,2.2917,2.3015,2.2832,2.2835,2.2836,0,2.2953,2.2947,2.3,2.2967,2.297,2.2992,2.2985,2.2994,2.2976,2.2955,2.2951,2.2907,2.2932,2.2872,2.2906,2.2866,2.2868,2.2855,2.2858,2.2854,2.2787,2.2882,2.3046,2.306,2.2856,2.2855,2.2853,0,2.3074,2.3081,2.3113,2.3107,2.3069,2.3086,2.3072,2.305,2.3051,2.3046,2.3046,2.3045,2.3043,2.3044,2.3001,2.2961,2.3039,2.2976,2.3022,2.3024,2.3039,2.3038,2.3202,2.3046,2.3046,2.3046,2.3045,0,2.3196,2.3231,2.3166,2.3186,2.3223,2.317,2.3208,2.3187,2.3169,2.3183,2.3127,2.3142,2.3086,2.3095,2.3063,2.3094,2.3095,2.3079,2.3069,2.3082,2.3084,2.3081,2.3072,2.305,2.3049,2.3048,2.3047,0,2.3336,2.3295,2.3325,2.3287,2.3279,2.3307,2.3275,2.3292,2.3264,2.3283,2.3285,2.324,2.3249,2.3207,2.3208,2.3186,2.3234,2.3214,2.3239,2.3232,2.3279,2.3275,2.3445,2.3464,2.3299,2.33,2.3302,0,2.3415,2.3439,2.3404,2.341,2.3397,2.3407,2.3407,2.3357,2.336,2.3342,2.3361,2.3365,2.3365,2.3382,2.335,2.3351,2.3329,2.3389,2.3328,2.334,2.3327,2.3324,2.3326,2.34,2.3402,2.3404,2.3405,0,2.3558,2.3537,2.3539,2.3534,2.3536,2.3531,2.3522,2.353,2.3475,2.3482,2.3489,2.3489,2.349,2.3494,2.3489,2.3475,2.3431,2.3425,2.3435,2.3447,2.346,2.3451,2.327,2.342,2.3419,2.3418,2.3417,2.3416,2.3668,2.3686,2.3664,2.3669,2.3656,2.3649,2.3663,2.3636,2.3641,2.3637,2.3608,2.3621,2.3603,2.3591,2.3581,2.3591,2.3562,2.3578,2.3581,2.3585,2.3593,2.3461,2.359,2.359,2.3589,2.3589,2.3588,0,2.3806,2.3788,2.3793,2.3781,2.3786,2.3745,2.3733,2.3739,2.375,2.3737,2.3738,2.3746,2.375,2.372,2.372,2.3734,2.3714,2.3735,2.3732,2.3729,2.3619,2.3609,2.3751,2.3751,2.3751,2.3751,2.3751,2.3751,2.3877,2.3906,2.3882,2.3905,2.3887,2.3898,2.3895,2.3888,2.3877,2.3889,2.3891,2.3871,2.3851,2.385,2.3852,2.3843,2.3844,2.3872,2.3856,2.3753,2.3737,2.3722,2.3712,2.3874,2.3874,2.3965,2.3966,2.3967]}]]